Location: Alquines
(50.7411°N, 1.9932°E)
Time: 22:15:13
(UTC+00:00)

Daily predictions for brighter satellites

Satellite Brightness Start Highest point End
(mag) Time Altitude Azimuth Time Altitude Azimuth Time Altitude Azimuth
Cosmos 1980 Rocket 3.6 16:19:16 10° N 16:23:06 18° NNE 16:26:54 10° ENE
GEOS 3 Rocket 4.4 16:19:53 10° E 16:24:30 33° NNE 16:29:06 10° NNW
Lacrosse 5 2.9 16:20:31 10° WNW 16:25:29 53° SW 16:30:26 10° SE
Nadezhda 4 Rocket 4.5 16:19:56 10° N 16:25:48 38° ENE 16:31:38 10° SE
SL-16 R/B 4.1 16:24:42 10° N 16:26:12 11° NNE 16:27:41 10° NNE
Cosmos 1656 4.0 16:23:08 10° NNW 16:28:20 41° NE 16:33:35 10° ESE
USA 305 3.2 16:24:41 10° SW 16:28:50 58° SSE 16:33:00 10° ENE
USA 267 3.4 16:22:34 10° ENE 16:29:08 73° SE 16:35:40 10° SW
YAOGAN 6 4.3 16:25:46 10° SSW 16:29:10 38° W 16:32:37 10° NNW
Cosmos 2237 Rocket 4.3 16:27:05 10° WNW 16:30:02 14° NNW 16:32:59 10° N
CZ-4C R/B 3.3 16:26:47 10° NNE 16:30:51 82° ESE 16:34:40 10° SSW
CZ-2C R/B 2.9 16:27:06 10° SSE 16:32:03 69° ENE 16:36:51 10° N
Cosmos 1340 Rocket 3.8 16:31:40 10° N 16:35:06 26° ENE 16:38:32 10° SE
USA 229 DEB 4.1 16:29:24 10° NW 16:36:20 50° NNE 16:43:44 10° ESE
USA 229 4.1 16:29:30 10° NW 16:36:25 50° NNE 16:43:49 10° ESE
ADEOS 4.1 16:31:15 10° S 16:36:26 67° WSW 16:41:41 10° NNW
Cosmos 2233 Rocket 4.3 16:32:43 10° SSW 16:38:52 72° WNW 16:45:07 10° N
Meteor 1-31 Rocket 4.3 16:35:48 10° S 16:39:22 40° W 16:42:59 10° NNW
Lacrosse 5 rocket 2.1 16:38:16 10° WNW 16:41:45 35° N 16:45:17 11° ENE
AQUARIUS 4.5 16:38:59 10° SE 16:43:14 44° ENE 16:47:32 10° N
USA 276 2.2 16:41:22 10° W 16:44:29 77° S 16:47:36 10° E
ATLAS 2AS CENTAUR R/B 3.5 16:37:02 10° WSW 16:44:40 52° NNW 16:52:00 10° NE
SL-16 R/B 4.1 16:40:58 10° W 16:45:11 21° NW 16:49:24 10° NNE
Cosmos-2242 3.7 16:42:12 10° SSW 16:46:25 56° WNW 16:50:39 10° N
ATLAS CENTAUR R/B 4.3 16:38:16 10° S 16:46:41 27° SE 16:50:57 10° E
SJ 16-02 1.4 16:44:33 10° NNW 16:48:57 84° WSW 16:53:20 10° SSE
Okean 3 Rocket 3.7 16:47:50 10° NNW 16:52:23 82° W 16:56:53 10° S
Cosmos 1500 Rocket 4.1 16:48:56 10° N 16:53:04 36° ENE 16:57:09 10° SE
RESURS DK-1 4.4 16:51:02 10° W 16:54:18 22° NW 16:57:36 10° N
Cosmos 2034 Rocket 4.3 16:50:26 10° SSE 16:56:13 45° E 17:02:02 10° NNE
SeaSat 1 4.3 16:54:08 10° N 16:58:01 23° NW 17:01:52 10° W
NOSS 3-1 (A) 4.0 16:52:49 10° NW 16:59:53 64° NE 17:08:19 10° ESE
USA 306 2.9 16:56:23 10° WSW 17:00:38 81° SSE 17:04:00 16° ENE
CORIOLIS 4.1 16:55:36 10° SSE 17:00:56 69° ENE 17:06:21 10° N
Spot 1 4.3 16:56:39 10° NNE 17:01:11 88° WNW 17:05:59 10° SSW
NOSS 2-1 (C) 2.8 16:58:10 10° SW 17:01:25 89° NW 17:04:08 15° NE
CZ-2D R/B 3.7 16:58:48 10° SE 17:02:24 39° ENE 17:06:00 10° N
NOSS 3-1 (C) 4.1 16:55:51 10° NW 17:03:07 87° NE 17:11:45 10° SE
Cosmos 1805 Rocket 4.4 17:00:04 10° N 17:03:51 28° ENE 17:07:37 10° SE
USA 234 4.1 16:58:07 10° SE 17:04:28 53° SW 17:10:51 10° WNW
Cosmos 1943 4.4 16:59:29 10° WSW 17:04:41 37° NW 17:09:53 10° NNE
SL-08 R/B 3.6 16:59:55 10° N 17:04:41 69° WNW 17:09:20 10° SSW
Iridium 2 4.0 17:01:07 10° N 17:04:53 67° W 17:08:36 10° S
Aureole 3 4.5 17:00:54 10° S 17:06:30 90° E 17:13:29 10° N
Cosmos 1842 Rocket 3.7 17:03:28 10° S 17:07:49 56° E 17:12:13 10° NNE
Cosmos 1833 Rocket 3.8 17:04:49 10° SSE 17:09:09 23° ESE 17:11:51 16° ENE
NOSS 2-1 (D) 2.9 17:07:30 10° SW 17:10:43 73° NW 17:13:12 17° NE
Meteor 2-2 Rocket 4.4 17:05:21 10° S 17:11:23 82° E 17:17:25 10° NNE
PSLV R/B 3.6 17:10:39 10° SSE 17:14:16 61° ENE 17:17:57 10° N
CZ-4B R/B 3.4 17:09:39 10° SE 17:14:49 46° ENE 17:19:56 10° N
Sich 1 3.8 17:11:21 10° N 17:15:05 28° ENE 17:18:48 10° SE
USA 307 2.9 17:12:48 10° WSW 17:17:05 89° S 17:19:51 22° ENE
ERBS 2.3 17:14:44 10° SW 17:17:54 59° SE 17:19:27 26° ENE
Cosmos 1939 Rocket 3.2 17:13:48 10° S 17:17:55 71° WSW 17:22:03 10° NNW
SMAP 3.2 17:14:03 10° S 17:18:42 77° WSW 17:23:24 10° NNW
Cosmos 1898 Rocket 3.6 17:13:34 10° NNW 17:18:44 51° ENE 17:23:49 10° SE
ARGOS 3.5 17:14:07 10° SE 17:19:07 40° ENE 17:24:09 10° N
Cosmos 1606 2.7 17:16:26 10° SSW 17:20:10 79° W 17:23:59 10° N
MOS 1-B Rocket 4.3 17:15:04 10° NNE 17:20:27 41° E 17:26:20 10° SSE
H-2A R/B 2.0 17:15:33 10° SSE 17:20:41 61° ENE 17:25:43 10° N
SL-24 R/B - RUBIN 2 4.5 17:17:02 10° NNW 17:21:16 31° NNE 17:23:11 22° ENE
COSMOS 2455 4.3 17:21:44 10° SE 17:25:27 17° ESE 17:25:52 17° E
ATLAS CENTAUR R/B 2.2 17:21:56 10° WSW 17:25:59 48° NW 17:29:26 16° NNE
Cosmos 44 3.4 17:22:22 10° NW 17:27:14 74° SW 17:31:46 10° SSE
Cosmos 2221 2.5 17:23:10 10° SSW 17:27:26 83° W 17:31:46 10° N
COSMO-SKYMED 1 3.2 17:29:13 22° NE 17:31:19 33° E 17:35:15 10° SSE
Cosmos 2026 Rocket 4.0 17:27:21 10° N 17:33:28 56° ENE 17:39:26 10° SSE
Cosmos 2195 Rocket 4.4 17:29:29 10° N 17:35:37 67° ENE 17:41:45 10° SSE
Cosmos 540 Rocket 4.3 17:31:57 10° SSE 17:36:13 27° E 17:37:03 26° E
SL-08 RB Rocket 4.2 17:32:47 10° SE 17:37:02 36° ENE 17:41:17 10° N
deb Chang Zheng 4 3.5 17:33:08 10° SSE 17:37:21 60° ENE 17:41:38 10° N
CZ-2C R/B 2.9 17:32:51 11° NNE 17:37:33 42° E 17:42:26 10° SSE
USA 308 2.9 17:35:05 10° WSW 17:39:20 76° NNW 17:41:12 33° ENE
Cosmos 1500 3.6 17:36:02 10° N 17:39:34 37° ENE 17:40:05 35° E
SJ-11-01 4.3 17:36:16 10° SSE 17:40:54 55° ENE 17:45:34 10° N
Cosmos 2360 Rocket 4.0 17:38:10 10° N 17:40:55 13° NNE 17:41:19 13° NNE
Okean O Rocket 1.7 17:37:17 10° SSE 17:41:38 55° ENE 17:46:01 10° N
Meteor 1-25 Rocket 4.1 17:37:02 10° N 17:42:38 81° ENE 17:48:13 10° SSE
ISS -3.8 17:40:46 10° W 17:44:10 74° N 17:44:55 50° ENE
Meteor 2-21 4.4 17:38:55 10° N 17:45:00 61° ENE 17:50:59 10° SSE
CZ-4C R/B 3.1 17:38:56 10° NW 17:45:24 48° NNE 17:49:48 25° E
YAOGAN 1 3.3 17:50:23 32° NE 17:50:23 32° NE 17:53:31 10° N
Cosmos 1461 4.5 17:49:12 10° W 17:52:48 27° NW 17:54:58 18° NNE
Cosmos 2084 3.5 17:52:38 10° NW 17:56:56 82° SW 17:59:42 22° SE
Cosmos 2322 Rocket 3.7 17:53:53 10° NNW 17:57:36 20° NNE 17:57:36 20° NNE
Cosmos 2369 3.7 17:52:21 10° NNW 17:58:05 64° ENE 18:02:24 18° SE
CZ-4 R/B 3.0 18:00:22 21° NNE 18:00:22 21° NNE 18:01:59 10° N
Cosmos 1743 Rocket 4.2 17:56:20 10° NNW 18:00:35 56° W 18:04:49 10° S
GEOS 3 Rocket 3.6 17:56:58 10° SE 18:02:14 82° SW 18:07:27 10° NW
Cosmos 1782 2.9 17:58:58 10° S 18:02:36 53° ESE 18:02:36 53° ESE
Cosmos 1697 Rocket 2.7 18:00:40 10° NNW 18:06:19 83° WSW 18:11:56 10° SSE
Cosmos 1937 Rocket 3.4 18:01:18 10° NNW 18:06:40 86° ENE 18:11:59 10° SSE
NOSS 2-2 (C) 4.1 18:03:20 10° NW 18:08:09 68° NE 18:10:59 33° ESE
Cosmos 1980 Rocket 2.2 18:02:41 10° NNW 18:08:20 61° NE 18:10:40 34° ESE
USA 305 3.0 18:04:33 10° W 18:08:45 61° N 18:09:22 53° NNE
Cosmos 1763 Rocket 3.3 18:03:53 10° SSW 18:08:56 81° ESE 18:11:17 33° NNE
Cosmos 841 Rocket 3.9 18:05:51 10° S 18:10:09 40° ESE 18:10:09 40° ESE
NOSS 2-1 (E) 4.4 18:07:54 10° W 18:10:47 28° NNW 18:11:22 27° NNW
Cosmos 2333 Rocket 4.2 18:09:07 10° N 18:11:34 14° NNE 18:11:34 14° NNE
USA 267 3.5 18:08:54 31° NE 18:12:06 61° NNW 18:18:31 10° W
Cosmos 1666 Rocket 3.8 18:07:46 10° N 18:11:32 51° NE 18:11:32 51° NE
SL-16 R/B 3.4 18:07:41 10° NNW 18:11:39 26° NNE 18:11:39 26° NNE
Meteor 2-14 Rocket 4.4 18:06:47 10° N 18:12:56 87° W 18:19:02 10° S
Spot 2 4.4 18:14:27 11° SSE 18:19:26 69° ENE 18:24:34 10° N
SKYMED 2 3.5 18:17:50 37° N 18:19:32 85° WNW 18:23:52 10° SSW
Cosmos 2082 Rocket 2.9 18:14:28 10° S 18:18:33 34° SE 18:18:33 34° SE
USA 276 3.6 18:17:26 10° W 18:19:58 33° SW 18:19:58 33° SW
Lacrosse 5 rocket 2.3 18:17:54 10° WNW 18:20:53 34° N 18:20:53 34° N
IRS-1C Rocket 4.4 18:23:27 47° NE 18:23:27 47° NE 18:27:50 10° N
Cosmos 2278 3.7 18:18:29 10° NNW 18:24:09 59° NE 18:24:47 56° E
COSMOS 2406 3.1 18:19:21 10° SSW 18:25:03 65° ESE 18:26:02 55° ENE
Cosmos 1933 3.9 18:21:30 10° SSW 18:25:30 58° WNW 18:27:10 32° NNW
USA 229 DEB 4.3 18:20:26 10° NW 18:27:37 63° SW 18:35:16 10° SSE
USA 229 4.3 18:20:32 10° NW 18:27:44 63° SW 18:35:22 10° SSE
Meteor 2-21 Rocket 4.4 18:23:03 10° N 18:29:14 87° W 18:35:18 10° S
Cosmos 1818 4.1 18:26:18 10° NW 18:31:00 42° NNE 18:31:00 42° NNE
Feng Yun 1-1 Rocket 4.3 18:25:42 10° SSE 18:31:38 86° WSW 18:37:35 10° NNW
Cosmos 372 Rocket 3.9 18:28:19 10° NNW 18:33:35 88° WSW 18:35:14 45° SSE
ATLAS 2AS CENTAUR R/B 4.0 18:30:34 10° WNW 18:37:18 31° N 18:39:54 25° NNE
Cosmos 2142 Rocket 4.3 18:32:21 10° S 18:38:29 81° E 18:44:44 10° NNE
Meteor 1-26 Rocket 4.4 18:34:18 10° SSW 18:40:15 78° WNW 18:45:47 13° N
USA 306 3.6 18:36:31 10° W 18:40:00 48° NW 18:40:00 48° NW
Cosmos 44 Rocket 4.4 18:42:09 10° NW 18:45:19 33° N 18:45:19 33° N
Cosmos 1833 Rocket 2.8 18:46:56 10° SW 18:52:33 69° WNW 18:53:35 56° N
Cosmos 2279 Rocket 4.0 18:50:25 10° SSW 18:56:39 81° W 19:01:21 19° N
USA 307 4.2 18:53:02 10° W 18:55:53 37° WNW 18:55:53 37° WNW
Cosmos 2219 Rocket 4.3 18:54:55 10° N 18:56:17 14° N 18:56:17 14° N
Cosmos 2266 Rocket 4.0 18:52:37 10° N 18:58:09 66° NNE 18:58:09 66° NNE
H-2A R/B 4.4 18:56:26 10° SW 19:00:30 23° W 19:04:30 10° NW
ATLAS CENTAUR R/B 3.8 19:02:53 10° WNW 19:05:34 18° NNW 19:05:34 18° NNW
COSMO-SKYMED 1 4.2 19:06:26 28° NW 19:07:26 31° WNW 19:11:16 10° SW
Cosmos 1655 Rocket 4.0 19:03:44 10° N 19:09:57 83° NNW 19:09:57 83° NNW
COSMOS 2455 3.2 19:04:28 10° SSW 19:09:04 55° SSW 19:09:04 55° SSW
Cosmos 540 Rocket 4.3 19:12:36 10° SW 19:16:55 47° W 19:16:55 47° W
CZ-2C R/B 4.0 19:14:22 17° N 19:17:47 34° WNW 19:22:23 10° SW
ATLAS CENTAUR R/B 3.3 19:11:11 10° WSW 19:16:49 46° W 19:16:49 46° W
Okean O Rocket 4.2 19:15:02 10° SW 19:18:19 20° W 19:21:38 10° NW
ISS -0.3 19:17:39 10° WNW 19:17:54 12° W 19:17:54 12° W
Cosmos 2360 Rocket 4.1 19:21:20 10° NNW 19:23:05 19° N 19:23:05 19° N
CZ-4 R/B 4.4 19:36:21 12° NW 19:36:21 12° NW 19:36:42 10° NW
CZ-4C R/B 3.1 19:27:22 10° NW 19:34:28 68° SW 19:35:02 66° SSW
Cosmos 2322 Rocket 4.0 19:37:24 10° NNW 19:39:25 23° NNW 19:39:25 23° NNW
Cosmos 1980 Rocket 3.9 19:47:15 10° NW 19:51:58 27° WSW 19:52:30 27° WSW
USA 267 4.1 19:56:15 43° NW 19:56:15 43° NW 20:00:58 10° WNW
SL-16 R/B 4.1 19:51:29 10° NNW 19:53:32 23° NW 19:53:32 23° NW
Cosmos 2082 Rocket 4.2 19:58:13 10° SW 20:00:28 23° WSW 20:00:28 23° WSW
ATLAS 2AS CENTAUR R/B 4.4 20:23:27 10° NW 20:27:19 27° NNW 20:27:19 27° NNW
